Weather in Letoshniki

Russia / Bryansk Oblast     53°27′18″N   33°38′44″E
temp.,
°C
wind,
m/s
gust,
m/s
humid.,
%
clouds,
%
prec.,
mm/h
press.,
hPa
HPBL,
m
19 january, wed
wed1900:00−10nnw5139179 0.0 1020452
03:00−13nw4119658 0.0 1022218
06:00−16nw2698100 0.0 102291
09:00−13wnw2596100 0.0 102298
12:00−8wsw248971 0.0 1021157
15:00−5ssw259382 0.0 1019277
18:00−6ssw499694 0.1 1018256
21:00−6sw4109699 0.1 1016289
20 january, thu
thu2000:00−5ssw41096100 0.1 1014310
03:00−5ssw41096100 0.1 1013272
06:00−3ssw4119699 0.1 1010448
09:00−3ssw51295100 0.1 1008588
12:00−2s61394100 0.1 1007756
15:00−2s71393100 0.2 1004771
18:00−2ssw61293100 0.1 1002866
21:00−3ssw61396100 1.0 1002726
21 january, fri
fri2100:00−2sw51185100 0.5 1002703
03:00−6s31095100 0.6 1003212
06:00−5s41196100 0.3 1001494
09:00−4s3896100 1.2 1001399
12:00−4ssw489196 0.1 1001649
15:00−4s41095100 0.3 1000715
18:00−4s51195100 0.7 999760
21:00−5sse51194100 1.1 999511
22 january, sat
sat2200:00−4s3895100 0.5 999372
03:00−6ssw2598100 0.7 1001103
06:00−6s2597100 0.1 1002147
09:00−6s2597100 0.4 1004153
12:00−3sw139479 0.3 1007272
15:00−4sw139380 0.3 1009182
18:00−8sw009862 0.0 101210
21:00−11ene1110096 0.1 101515
23 january, sun
sun2300:00−10ne239897 0.1 101755
03:00−13ene119987 0.1 102010
06:00−12e249788 0.1 102275
09:00−16e1110083 0.1 102517
12:00−9e129692 0.0 1027120
15:00−7ne239597 0.1 1028200
18:00−14ne2210088 0.0 103110
21:00−17ne11100100 0.1 10339